This demonstration page uses our WeatherBlox Daily Observations layout. Learn more.

Left ArrowRight Arrow

41.55636, -103.73856

Hourly Observations for July 29, 2017

Temp ( °F °C ) Dew Point ( °F °C ) Humidity (%) Winds ( mph kmh ) Pressure ( in mb ) Visibility ( mi km ) Precip ( " mm )
12:53 am 00:53 Clear 68 20 64 17.8 87 87 Calm 29.96 1014 8 13 0.00 0.00
1:53 am 01:53 Clear 67 19.4 64 17.8 91 91 NE 3 6 29.95 1014 8 13 0.00 0.00
2:53 am 02:53 Clear 67 19.4 64 17.8 91 91 Calm 29.95 1014 8 13 0.00 0.00
3:53 am 03:53 Clear 67 19.4 64 17.8 91 91 ENE 10 17 29.96 1014 10 16 0.00 0.00
4:25 am 04:25 Mostly Clear 67 19.4 64 17.8 91 91 E 8 13 29.94 1014 8 13 0.00 0.00
4:38 am 04:38 Mostly Cloudy 66 19 64 18 94 94 ESE 8 13 29.97 1015 7 11 0.00 0.00
4:53 am 04:53 Cloudy 68 20 65 18.3 90 90 E 8 13 29.96 1015 7 11 0.00 0.00
5:28 am 05:28 Cloudy with Mist and Fog 67 19.4 65 18.3 93 93 SE 10 17 29.94 1014 5 8 0.00 0.00
5:53 am 05:53 Cloudy with Mist and Fog 67 19.4 65 18.3 93 93 undefined N/A 29.98 1015 4 6 0.00 0.00
6:15 am 06:15 Cloudy with Mist and Fog 67 19.4 64 17.8 91 91 undefined N/A 29.94 1014 3 4 0.00 0.00
6:22 am 06:22 Cloudy with Mist and Fog 66 18.9 64 17.8 93 93 undefined N/A 29.97 1015 1 1 0.00 0.00
6:34 am 06:34 Mostly Cloudy with Fog 66 19 64 18 94 94 undefined N/A 29.97 1015 0 0 0.00 0.00
6:53 am 06:53 Cloudy with Mist and Fog 65 18.3 64 17.8 97 97 undefined N/A 29.99 1016 2 2 0.00 0.00
7:09 am 07:09 Cloudy with Mist and Fog 65 18.3 64 17.8 97 97 undefined N/A 29.97 1015 1 1 0.00 0.00
7:36 am 07:36 Mostly Cloudy with Fog 65 18.3 64 17.8 97 97 undefined N/A 29.97 1015 0 0 0.00 0.00
7:53 am 07:53 Mostly Cloudy with Fog 65 18.3 64 17.8 97 97 undefined N/A 30.00 1016 0 0 0.00 0.00
8:20 am 08:20 Cloudy with Fog 66 18.9 64 17.8 93 93 undefined N/A 29.97 1015 1 1 0.00 0.00
8:53 am 08:53 Cloudy with Mist and Fog 66 18.9 64 17.8 93 93 undefined N/A 30.01 1016 1 2 0.00 0.00
9:38 am 09:38 Cloudy with Mist and Fog 66 19 64 18 94 94 ESE 7 11 29.97 1015 3 4 0.00 0.00
9:53 am 09:53 Cloudy with Mist and Fog 67 19.4 65 18.3 93 93 SSE 7 11 30.02 1017 2 3 0.00 0.00
10:08 am 10:08 Cloudy with Mist and Fog 68 20 65 18.3 90 90 SE 8 13 29.94 1014 3 5 0.00 0.00
10:53 am 10:53 Cloudy with Haze 70 21.1 65 18.3 84 84 ESE 6 9 30.02 1017 5 8 0.00 0.00
11:53 am 11:53 Mostly Sunny 76 24.4 66 18.9 72 72 VRB 6 9 30.02 1017 8 13 0.00 0.00
12:53 pm 12:53 Sunny 80 26.7 63 17.2 56 56 ESE 7 11 30.00 1016 10 16 0.00 0.00
1:53 pm 13:53 Sunny 85 29.4 64 17.8 50 50 ESE 8 13 29.97 1015 10 16 0.00 0.00
2:53 pm 14:53 Sunny 87 30.6 61 16.1 42 42 SE 8 13 29.96 1015 10 16 0.00 0.00
3:53 pm 15:53 Mostly Sunny 82 27.8 59 15 46 46 undefined N/A 30.01 1016 10 16 0.00 0.00
4:53 pm 16:53 Sunny 76 24.4 56 13.3 50 50 N 15 24 30.02 1017 10 16 0.00 0.03
5:53 pm 17:53 Mostly Sunny 78 25.6 55 12.8 45 45 VRB 7 11 29.99 1016 10 16 0.00 0.00
6:53 pm 18:53 Sunny 75 23.9 58 14.4 55 55 WNW 9 15 30.01 1016 10 16 0.00 0.00
7:53 pm 19:53 Sunny 72 22.2 61 16.1 68 68 N 7 11 30.03 1017 10 16 0.00 0.00
8:53 pm 20:53 Clear 71 21.7 61 16.1 71 71 NW 5 7 30.05 1018 10 16 0.00 0.00
9:53 pm 21:53 Clear 70 21.1 61 16.1 73 73 W 3 6 30.06 1018 10 16 0.00 0.00
10:53 pm 22:53 Clear 68 20 62 16.7 81 81 Calm 30.06 1018 10 16 0.00 0.00
11:53 pm 23:53 Clear 65 18.3 61 16.1 87 87 Calm 30.07 1018 10 16 0.00 0.00

Powered by AerisWeather